PBD731 URRP-UWSG

Flight info

Callsign PBD731
Flight time N/A
Altitude 34000
Route ABLOG3E ABLOG R720 MOR G128 SUREM/K0839F360 G128 ST G900 OBABI/K0837F350 G900 KR KR1G
Aircraft B738/M-SDE2E3FGHIRWXY/LB1

Departure

Time 2026-04-22 12:55
Airport Platov International Airport (URRP)

Arrival

Time N/A
Airport Gagarin International Airport (UWSG)
Time Latitude Longitude Altitude Speed Heading
2026-04-22 12:39 47.49075 39.92609 242 ft 0 kts 324°
2026-04-22 12:51 47.49081 39.92603 242 ft 4 kts 324°
2026-04-22 12:52 47.49139 39.92585 242 ft 13 kts 33°
2026-04-22 12:52 47.49241 39.92652 241 ft 20 kts 356°
2026-04-22 12:52 47.49351 39.92813 243 ft 23 kts 54°
2026-04-22 12:52 47.49437 39.92990 249 ft 19 kts 54°
2026-04-22 12:53 47.49511 39.93148 255 ft 21 kts 54°
2026-04-22 12:53 47.49609 39.93348 264 ft 26 kts 56°
2026-04-22 12:53 47.49730 39.93592 268 ft 33 kts 54°
2026-04-22 12:53 47.49871 39.93880 265 ft 27 kts 54°
2026-04-22 12:54 47.49995 39.93962 264 ft 12 kts 322°
2026-04-22 12:54 47.50057 39.93882 264 ft 12 kts 295°
2026-04-22 12:54 47.50002 39.93727 265 ft 36 kts 235°
2026-04-22 12:54 47.49717 39.93135 260 ft 103 kts 236°
2026-04-22 12:55 47.49183 39.92042 236 ft 158 kts 236°
2026-04-22 12:55 47.48494 39.90620 665 ft 170 kts 236°
2026-04-22 12:55 47.47890 39.89254 1502 ft 159 kts 253°
2026-04-22 12:55 47.47851 39.87671 1997 ft 160 kts 284°
2026-04-22 12:56 47.48305 39.86136 2394 ft 170 kts 302°
2026-04-22 12:56 47.49139 39.84843 2789 ft 181 kts 322°
2026-04-22 12:56 47.50357 39.84145 3045 ft 206 kts 354°
2026-04-22 12:56 47.51829 39.84537 3423 ft 224 kts 14°
2026-04-22 12:57 47.53345 39.85338 3822 ft 240 kts 16°
2026-04-22 12:57 47.54947 39.86181 4281 ft 252 kts 15°
2026-04-22 12:57 47.56633 39.87033 4808 ft 261 kts 15°
2026-04-22 12:57 47.58382 39.87901 5454 ft 265 kts 15°
2026-04-22 12:58 47.60126 39.88763 6123 ft 268 kts 15°
2026-04-22 12:58 47.61894 39.89639 6795 ft 271 kts 15°
2026-04-22 12:58 47.63643 39.90671 7460 ft 276 kts 25°
2026-04-22 12:58 47.65146 39.92468 8056 ft 286 kts 50°
2026-04-22 12:59 47.66164 39.95003 8695 ft 291 kts 61°
2026-04-22 12:59 47.67055 39.97744 9273 ft 296 kts 62°
2026-04-22 12:59 47.67938 40.00483 9948 ft 297 kts 62°
2026-04-22 12:59 47.68857 40.03258 10331 ft 310 kts 61°
2026-04-22 13:00 47.69845 40.06172 10637 ft 324 kts 61°
2026-04-22 13:00 47.70885 40.09208 11139 ft 332 kts 61°
2026-04-22 13:00 47.71946 40.12302 11666 ft 339 kts 61°
2026-04-22 13:00 47.73007 40.15402 12299 ft 342 kts 61°
2026-04-22 13:01 47.74091 40.18574 12875 ft 348 kts 61°
2026-04-22 13:01 47.75195 40.21809 13443 ft 354 kts 61°
2026-04-22 13:01 47.76303 40.25058 14062 ft 358 kts 61°
2026-04-22 13:01 47.77436 40.28387 14694 ft 362 kts 61°
2026-04-22 13:02 47.78556 40.31683 15289 ft 367 kts 61°
2026-04-22 13:02 47.79712 40.35086 15906 ft 371 kts 61°
2026-04-22 13:02 47.80885 40.38526 16496 ft 376 kts 60°
2026-04-22 13:02 47.82136 40.41949 17086 ft 379 kts 58°
2026-04-22 13:03 47.83452 40.45351 17686 ft 383 kts 57°
2026-04-22 13:03 47.84795 40.48754 18236 ft 387 kts 57°
2026-04-22 13:03 47.86174 40.52247 18799 ft 391 kts 57°
2026-04-22 13:03 47.87547 40.55755 19379 ft 395 kts 57°
2026-04-22 13:04 47.88908 40.59258 19926 ft 398 kts 58°
2026-04-22 13:04 47.90301 40.62870 20426 ft 403 kts 58°
2026-04-22 13:04 47.91698 40.66508 20966 ft 406 kts 59°
2026-04-22 13:04 47.93103 40.70177 21471 ft 410 kts 59°
2026-04-22 13:05 47.94503 40.73843 21986 ft 413 kts 59°
2026-04-22 13:05 47.95927 40.77581 22471 ft 416 kts 59°
2026-04-22 13:05 47.97352 40.81331 22960 ft 419 kts 59°
2026-04-22 13:05 47.98780 40.85091 23474 ft 420 kts 59°
2026-04-22 13:06 48.00227 40.88909 23932 ft 424 kts 59°
2026-04-22 13:06 48.01677 40.92738 24417 ft 426 kts 59°
2026-04-22 13:06 48.03154 40.96644 24844 ft 429 kts 59°
2026-04-22 13:06 48.04629 41.00549 25210 ft 432 kts 59°
2026-04-22 13:07 48.06107 41.04468 25585 ft 436 kts 59°
2026-04-22 13:07 48.07600 41.08435 25948 ft 439 kts 59°
2026-04-22 13:07 48.09096 41.12413 26379 ft 440 kts 59°
2026-04-22 13:07 48.10596 41.16411 26758 ft 442 kts 59°
2026-04-22 13:08 48.12112 41.20456 27091 ft 446 kts 59°
2026-04-22 13:08 48.13630 41.24513 27469 ft 447 kts 59°
2026-04-22 13:08 48.15153 41.28588 27779 ft 450 kts 59°
2026-04-22 13:08 48.16683 41.32688 28119 ft 453 kts 59°
2026-04-22 13:09 48.18206 41.36775 28394 ft 456 kts 59°
2026-04-22 13:09 48.19764 41.40959 28729 ft 458 kts 59°
2026-04-22 13:09 48.21303 41.45096 28996 ft 461 kts 59°
2026-04-22 13:09 48.22878 41.49340 29308 ft 463 kts 59°
2026-04-22 13:10 48.24439 41.53554 29658 ft 464 kts 59°
2026-04-22 13:10 48.26013 41.57809 29875 ft 468 kts 59°
2026-04-22 13:10 48.27568 41.62021 30147 ft 469 kts 59°
2026-04-22 13:10 48.29158 41.66336 30341 ft 473 kts 60°
2026-04-22 13:11 48.30748 41.70656 30603 ft 474 kts 60°
2026-04-22 13:11 48.32344 41.75000 30804 ft 477 kts 60°
2026-04-22 13:11 48.33992 41.79291 31062 ft 477 kts 57°
2026-04-22 13:11 48.35815 41.83459 31271 ft 478 kts 53°
2026-04-22 13:12 48.37764 41.87491 31506 ft 478 kts 51°
2026-04-22 13:12 48.39778 41.91445 31700 ft 479 kts 50°
2026-04-22 13:12 48.41837 41.95394 31912 ft 480 kts 50°
2026-04-22 13:12 48.43913 41.99351 32117 ft 482 kts 50°
2026-04-22 13:13 48.45970 42.03284 32306 ft 483 kts 50°
2026-04-22 13:13 48.48033 42.07257 32533 ft 483 kts 50°
2026-04-22 13:13 48.50103 42.11272 32701 ft 485 kts 51°
2026-04-22 13:13 48.52147 42.15263 33022 ft 481 kts 51°
2026-04-22 13:14 48.54202 42.19296 33241 ft 482 kts 51°
2026-04-22 13:14 48.56251 42.23332 33477 ft 482 kts 51°
2026-04-22 13:14 48.58272 42.27327 33685 ft 482 kts 51°
2026-04-22 13:14 48.60291 42.31328 33836 ft 483 kts 51°
2026-04-22 13:15 48.62310 42.35339 33848 ft 484 kts 51°
2026-04-22 13:15 48.66349 42.43402 33844 ft 480 kts 51°
2026-04-22 13:16 48.70373 42.51462 33841 ft 482 kts 51°
2026-04-22 13:16 48.74397 42.59546 33840 ft 480 kts 51°
2026-04-22 13:17 48.78402 42.67630 33827 ft 480 kts 52°
2026-04-22 13:17 48.82332 42.75743 33821 ft 481 kts 53°
2026-04-22 13:18 48.86258 42.83949 33830 ft 481 kts 53°
2026-04-22 13:18 48.90168 42.92146 33810 ft 480 kts 53°
2026-04-22 13:19 48.94064 43.00324 33807 ft 478 kts 53°
2026-04-22 13:19 48.97953 43.08499 33794 ft 479 kts 53°
2026-04-22 13:20 49.01849 43.16705 33798 ft 479 kts 53°
2026-04-22 13:20 49.05753 43.24954 33791 ft 479 kts 53°
2026-04-22 13:21 49.09649 43.33207 33781 ft 479 kts 53°
2026-04-22 13:21 49.13530 43.41457 33782 ft 478 kts 53°
2026-04-22 13:22 49.17407 43.49722 33775 ft 479 kts 53°
2026-04-22 13:22 49.21269 43.57982 33772 ft 478 kts 53°
2026-04-22 13:23 49.25306 43.66078 33773 ft 476 kts 47°
2026-04-22 13:23 49.30321 43.72546 33782 ft 473 kts 32°
2026-04-22 13:24 49.35871 43.77884 33781 ft 471 kts 28°
2026-04-22 13:24 49.41510 43.82983 33777 ft 470 kts 28°
2026-04-22 13:25 49.47127 43.88120 33772 ft 471 kts 28°
2026-04-22 13:25 49.52686 43.93332 33763 ft 470 kts 30°
2026-04-22 13:26 49.58161 43.99031 33958 ft 476 kts 33°
2026-04-22 13:26 49.60831 44.01969 34196 ft 476 kts 33°
2026-04-22 13:26 49.63497 44.04934 34417 ft 476 kts 33°
2026-04-22 13:26 49.66182 44.07925 34677 ft 475 kts 34°
2026-04-22 13:27 49.68850 44.10894 34749 ft 477 kts 33°
2026-04-22 13:27 49.74247 44.16878 34760 ft 481 kts 33°
2026-04-22 13:28 49.79617 44.22812 34756 ft 471 kts 33°
2026-04-22 13:28 49.84962 44.28714 34757 ft 473 kts 33°
2026-04-22 13:29 49.90268 44.34577 34545 ft 468 kts 33°
2026-04-22 13:29 49.92873 44.37464 34327 ft 458 kts 33°
2026-04-22 13:29 49.95462 44.40337 34097 ft 449 kts 33°
2026-04-22 13:29 49.97960 44.43113 33877 ft 444 kts 33°
2026-04-22 13:30 50.00460 44.45892 33661 ft 447 kts 33°
2026-04-22 13:30 50.02997 44.48710 33465 ft 451 kts 33°
2026-04-22 13:30 50.05566 44.51568 33269 ft 452 kts 33°
2026-04-22 13:30 50.08124 44.54419 33072 ft 451 kts 33°
2026-04-22 13:31 50.10658 44.57249 32877 ft 450 kts 33°
2026-04-22 13:31 50.13166 44.60053 32687 ft 450 kts 33°
2026-04-22 13:31 50.15704 44.62895 32495 ft 450 kts 33°
2026-04-22 13:31 50.18241 44.65741 32303 ft 450 kts 34°
2026-04-22 13:32 50.20789 44.68603 32112 ft 450 kts 34°
2026-04-22 13:32 50.23334 44.71465 31930 ft 450 kts 34°
2026-04-22 13:32 50.25853 44.74300 31746 ft 449 kts 34°
2026-04-22 13:32 50.28368 44.77135 31559 ft 449 kts 34°
2026-04-22 13:33 50.30915 44.80011 31355 ft 449 kts 34°
2026-04-22 13:33 50.33420 44.82842 31165 ft 451 kts 34°
2026-04-22 13:33 50.35977 44.85735 30989 ft 450 kts 34°
2026-04-22 13:33 50.38479 44.88571 30803 ft 449 kts 34°
2026-04-22 13:34 50.40993 44.91425 30730 ft 447 kts 34°
2026-04-22 13:34 50.46056 44.97183 30703 ft 451 kts 34°
2026-04-22 13:34 50.48580 45.00060 30492 ft 443 kts 34°
2026-04-22 13:35 50.51032 45.02862 30276 ft 434 kts 34°
2026-04-22 13:35 50.53429 45.05605 30075 ft 425 kts 34°
2026-04-22 13:35 50.55826 45.08350 29767 ft 420 kts 34°
2026-04-22 13:35 50.58145 45.11007 29331 ft 419 kts 34°
2026-04-22 13:36 50.60511 45.13718 28843 ft 419 kts 34°
2026-04-22 13:36 50.62851 45.16405 28344 ft 419 kts 35°
2026-04-22 13:36 50.65197 45.19101 27840 ft 419 kts 35°
2026-04-22 13:36 50.67519 45.21772 27333 ft 418 kts 35°
2026-04-22 13:37 50.69866 45.24477 26786 ft 417 kts 35°
2026-04-22 13:37 50.72186 45.27154 26261 ft 415 kts 35°
2026-04-22 13:37 50.74495 45.29820 25749 ft 412 kts 35°
2026-04-22 13:37 50.76790 45.32474 25248 ft 409 kts 35°
2026-04-22 13:38 50.79087 45.35133 24744 ft 406 kts 35°
2026-04-22 13:38 50.83554 45.40313 23750 ft 397 kts 35°
2026-04-22 13:38 50.85774 45.42890 23255 ft 393 kts 35°
2026-04-22 13:39 50.87938 45.45424 22784 ft 388 kts 36°
2026-04-22 13:39 50.90058 45.47993 22323 ft 384 kts 37°
2026-04-22 13:39 50.92156 45.50596 21853 ft 380 kts 37°
2026-04-22 13:39 50.94204 45.53159 21388 ft 376 kts 37°
2026-04-22 13:40 50.96238 45.55716 20925 ft 373 kts 37°
2026-04-22 13:40 50.98269 45.58267 20465 ft 369 kts 37°
2026-04-22 13:40 51.00250 45.60751 20011 ft 365 kts 37°
2026-04-22 13:40 51.02255 45.63186 19553 ft 362 kts 35°
2026-04-22 13:41 51.04337 45.65330 19277 ft 352 kts 29°
2026-04-22 13:41 51.06502 45.67145 18789 ft 350 kts 25°
2026-04-22 13:41 51.08668 45.68762 18372 ft 346 kts 23°
2026-04-22 13:41 51.10859 45.70326 17959 ft 342 kts 23°
2026-04-22 13:42 51.13011 45.71863 17545 ft 338 kts 23°
2026-04-22 13:42 51.15112 45.73393 17142 ft 335 kts 24°
2026-04-22 13:42 51.17210 45.74947 16732 ft 332 kts 24°
2026-04-22 13:42 51.19281 45.76497 16319 ft 328 kts 24°
2026-04-22 13:43 51.21321 45.78032 15937 ft 324 kts 24°
2026-04-22 13:43 51.23350 45.79563 15533 ft 320 kts 24°
2026-04-22 13:43 51.25357 45.81078 15147 ft 317 kts 24°
2026-04-22 13:43 51.27321 45.82561 14748 ft 314 kts 24°
2026-04-22 13:44 51.29289 45.84047 14366 ft 311 kts 23°
2026-04-22 13:44 51.31238 45.85519 13980 ft 308 kts 23°
2026-04-22 13:44 51.33143 45.86958 13595 ft 306 kts 23°
2026-04-22 13:44 51.35055 45.88403 13224 ft 303 kts 23°
2026-04-22 13:45 51.36958 45.89841 12833 ft 300 kts 24°
2026-04-22 13:45 51.38828 45.91260 12476 ft 296 kts 24°
2026-04-22 13:45 51.40673 45.92560 11986 ft 293 kts 13°
2026-04-22 13:45 51.42665 45.92925 11357 ft 286 kts 354°
2026-04-22 13:46 51.44619 45.92659 10758 ft 283 kts 351°
2026-04-22 13:46 51.46582 45.92350 10167 ft 281 kts 353°
2026-04-22 13:46 51.48512 45.92157 9600 ft 278 kts 355°
2026-04-22 13:46 51.50405 45.92059 9040 ft 275 kts 356°
2026-04-22 13:47 51.52299 45.92004 8494 ft 272 kts 357°
2026-04-22 13:47 51.54179 45.91967 7958 ft 269 kts 358°
2026-04-22 13:47 51.56034 45.91924 7447 ft 266 kts 358°
2026-04-22 13:47 51.57871 45.91872 6960 ft 262 kts 358°
2026-04-22 13:48 51.59687 45.91819 6489 ft 259 kts 358°
2026-04-22 13:48 51.61463 45.91771 6005 ft 256 kts 358°
2026-04-22 13:48 51.63224 45.91727 5625 ft 249 kts 358°
2026-04-22 13:48 51.64929 45.91691 5345 ft 240 kts 359°
2026-04-22 13:49 51.66533 45.91499 5064 ft 231 kts 343°
2026-04-22 13:49 51.67896 45.90252 4761 ft 224 kts 312°
2026-04-22 13:49 51.68597 45.88075 4515 ft 222 kts 281°
2026-04-22 13:49 51.68716 45.85635 4698 ft 216 kts 273°
2026-04-22 13:50 51.68685 45.83179 4349 ft 223 kts 263°
2026-04-22 13:50 51.68541 45.80720 4050 ft 221 kts 279°
2026-04-22 13:50 51.69079 45.78483 3721 ft 216 kts 312°
2026-04-22 13:50 51.70288 45.77127 3420 ft 212 kts 346°
2026-04-22 13:51 51.71732 45.77142 3105 ft 211 kts 22°
2026-04-22 13:51 51.72822 45.78668 2796 ft 214 kts 64°
2026-04-22 13:51 51.72994 45.80986 2489 ft 219 kts 104°
2026-04-22 13:51 51.72379 45.83246 2232 ft 219 kts 112°
2026-04-22 13:52 51.71946 45.85569 1993 ft 212 kts 94°
2026-04-22 13:52 51.71861 45.87849 1970 ft 196 kts 88°
2026-04-22 13:52 51.71845 45.89967 1975 ft 188 kts 88°
2026-04-22 13:52 51.71807 45.92086 1981 ft 189 kts 89°
2026-04-22 13:53 51.71760 45.94195 1978 ft 189 kts 89°
2026-04-22 13:53 51.71717 45.96289 1979 ft 183 kts 89°
2026-04-22 13:53 51.71675 45.98277 1974 ft 176 kts 89°
2026-04-22 13:53 51.71634 46.00207 1947 ft 169 kts 89°
2026-04-22 13:54 51.71595 46.02092 1654 ft 167 kts 89°
2026-04-22 13:54 51.71555 46.03897 1470 ft 151 kts 89°
2026-04-22 13:54 51.71520 46.05570 1228 ft 149 kts 89°
2026-04-22 13:54 51.71484 46.07209 1015 ft 145 kts 90°
2026-04-22 13:55 51.71448 46.08837 816 ft 146 kts 90°
2026-04-22 13:55 51.71414 46.10459 614 ft 145 kts 90°
2026-04-22 13:55 51.71373 46.12090 707 ft 149 kts 91°
2026-04-22 13:55 51.71323 46.13802 1128 ft 161 kts 91°
2026-04-22 13:56 51.71269 46.15667 1517 ft 176 kts 88°